Location: Chandrammap?lem
(16.9200°N, 81.0051°E)
Time: 03:03:22
(UTC+00:00)

CBERS-1 - Pass Details

Date: 29 May 2024
Orbit: 767 x 774 km, 98.8° (Epoch: 21 June)

Event Time Altitude Azimuth Distance (km) Brightness Sun altitude
Rises 23:00:24 0° 7° (N) 3,235 7.8 -14.1°
Reaches altitude 10° 23:02:43 10° 4° (N) 2,308 6.9 -13.6°
Maximum altitude 23:07:44 64° 284° (WNW) 849 4.0 -12.5°
Drops below altitude 10° 23:12:46 10° 203° (SSW) 2,309 6.0 -11.5°
Enters shadow 23:13:36 - 202° (SSW) 2,635 6.3 -11.3°
